N759WP -KLAL

Flight info

Callsign N759WP
Flight time N/A
Altitude VFR/045
Route
Aircraft C172/L-DOV/C

Departure

Time N/A
Airport -

Arrival

Time 2026-04-22 00:16
Airport Lakeland Linder International Airport (KLAL)
Time Latitude Longitude Altitude Speed Heading
2026-04-21 23:23 28.54808 -81.33828 117 ft 0 kts 36°
2026-04-21 23:24 28.54810 -81.33818 117 ft 6 kts 112°
2026-04-21 23:25 28.54735 -81.33768 114 ft 17 kts 161°
2026-04-21 23:25 28.54651 -81.33685 114 ft 15 kts 131°
2026-04-21 23:25 28.54583 -81.33598 112 ft 14 kts 144°
2026-04-21 23:25 28.54531 -81.33670 110 ft 14 kts 246°
2026-04-21 23:26 28.54492 -81.33775 110 ft 14 kts 247°
2026-04-21 23:26 28.54433 -81.33862 109 ft 14 kts 222°
2026-04-21 23:26 28.54372 -81.33916 108 ft 5 kts 220°
2026-04-21 23:26 28.54371 -81.33916 108 ft 0 kts 220°
2026-04-21 23:27 28.54371 -81.33917 108 ft 1 kts 220°
2026-04-21 23:28 28.54303 -81.33929 106 ft 15 kts 156°
2026-04-21 23:28 28.54320 -81.33829 107 ft 31 kts 66°
2026-04-21 23:28 28.54449 -81.33494 275 ft 47 kts 74°
2026-04-21 23:28 28.54670 -81.33217 495 ft 58 kts 32°
2026-04-21 23:29 28.55046 -81.33387 740 ft 70 kts 323°
2026-04-21 23:29 28.55355 -81.33992 806 ft 104 kts 304°
2026-04-21 23:29 28.55736 -81.34801 883 ft 125 kts 303°
2026-04-21 23:29 28.56175 -81.35700 971 ft 134 kts 304°
2026-04-21 23:30 28.56646 -81.36642 1068 ft 138 kts 304°
2026-04-21 23:30 28.57125 -81.37583 1168 ft 142 kts 305°
2026-04-21 23:30 28.57613 -81.38552 1299 ft 140 kts 304°
2026-04-21 23:30 28.58078 -81.39494 1439 ft 137 kts 303°
2026-04-21 23:31 28.58541 -81.40434 1586 ft 135 kts 303°
2026-04-21 23:31 28.58998 -81.41368 1735 ft 135 kts 303°
2026-04-21 23:31 28.59455 -81.42300 1885 ft 134 kts 303°
2026-04-21 23:31 28.59905 -81.43224 2033 ft 133 kts 303°
2026-04-21 23:32 28.60229 -81.44205 2155 ft 139 kts 272°
2026-04-21 23:32 28.60105 -81.45318 2301 ft 145 kts 262°
2026-04-21 23:32 28.59997 -81.46452 2449 ft 148 kts 263°
2026-04-21 23:32 28.59879 -81.47604 2631 ft 146 kts 264°
2026-04-21 23:33 28.59759 -81.48737 2866 ft 143 kts 263°
2026-04-21 23:33 28.59422 -81.49781 3051 ft 142 kts 222°
2026-04-21 23:33 28.58618 -81.50337 3267 ft 133 kts 199°
2026-04-21 23:33 28.57808 -81.50825 3494 ft 132 kts 201°
2026-04-21 23:34 28.57017 -81.51340 3714 ft 133 kts 202°
2026-04-21 23:34 28.56238 -81.51889 3926 ft 131 kts 204°
2026-04-21 23:34 28.55489 -81.52433 4149 ft 127 kts 205°
2026-04-21 23:34 28.54747 -81.52973 4375 ft 127 kts 204°
2026-04-21 23:35 28.54015 -81.53512 4593 ft 123 kts 204°
2026-04-21 23:35 28.53295 -81.54039 4822 ft 122 kts 206°
2026-04-21 23:35 28.52505 -81.54613 4734 ft 146 kts 206°
2026-04-21 23:35 28.51612 -81.55267 4591 ft 158 kts 207°
2026-04-21 23:36 28.50687 -81.55951 4498 ft 157 kts 207°
2026-04-21 23:36 28.49777 -81.56623 4485 ft 156 kts 207°
2026-04-21 23:36 28.48874 -81.57285 4481 ft 152 kts 206°
2026-04-21 23:36 28.47976 -81.57943 4489 ft 154 kts 208°
2026-04-21 23:37 28.47083 -81.58598 4491 ft 155 kts 207°
2026-04-21 23:37 28.46182 -81.59261 4482 ft 153 kts 207°
2026-04-21 23:37 28.45294 -81.59911 4481 ft 151 kts 207°
2026-04-21 23:37 28.44403 -81.60563 4481 ft 154 kts 207°
2026-04-21 23:38 28.43502 -81.61224 4478 ft 155 kts 208°
2026-04-21 23:38 28.42601 -81.61885 4483 ft 155 kts 206°
2026-04-21 23:38 28.41686 -81.62555 4484 ft 157 kts 207°
2026-04-21 23:38 28.40777 -81.63221 4486 ft 158 kts 208°
2026-04-21 23:39 28.39862 -81.63892 4493 ft 156 kts 207°
2026-04-21 23:39 28.38958 -81.64553 4484 ft 153 kts 207°
2026-04-21 23:39 28.38060 -81.65211 4485 ft 153 kts 206°
2026-04-21 23:39 28.37155 -81.65874 4470 ft 154 kts 207°
2026-04-21 23:40 28.36258 -81.66529 4477 ft 154 kts 206°
2026-04-21 23:40 28.35353 -81.67190 4474 ft 155 kts 206°
2026-04-21 23:40 28.34447 -81.67853 4476 ft 155 kts 207°
2026-04-21 23:40 28.33538 -81.68519 4473 ft 155 kts 207°
2026-04-21 23:41 28.32642 -81.69175 4473 ft 152 kts 206°
2026-04-21 23:41 28.31758 -81.69821 4471 ft 151 kts 206°
2026-04-21 23:41 28.30870 -81.70469 4429 ft 156 kts 206°
2026-04-21 23:41 28.29934 -81.71150 4284 ft 162 kts 206°
2026-04-21 23:42 28.28984 -81.71845 4132 ft 162 kts 206°
2026-04-21 23:42 28.28037 -81.72537 3904 ft 166 kts 206°
2026-04-21 23:42 28.27101 -81.73224 3658 ft 152 kts 206°
2026-04-21 23:42 28.26236 -81.73859 3405 ft 146 kts 205°
2026-04-21 23:43 28.25371 -81.74487 3139 ft 147 kts 206°
2026-04-21 23:43 28.24518 -81.75110 2887 ft 145 kts 206°
2026-04-21 23:43 28.23669 -81.75728 2648 ft 145 kts 206°
2026-04-21 23:43 28.22808 -81.76355 2388 ft 149 kts 206°
2026-04-21 23:44 28.21944 -81.76986 2138 ft 148 kts 206°
2026-04-21 23:44 28.21061 -81.77628 1892 ft 152 kts 205°
2026-04-21 23:44 28.20182 -81.78269 1647 ft 152 kts 206°
2026-04-21 23:44 28.19279 -81.78926 1411 ft 159 kts 205°
2026-04-21 23:45 28.18343 -81.79609 1186 ft 158 kts 205°
2026-04-21 23:45 28.16699 -81.80810 1193 ft 130 kts 204°
2026-04-21 23:45 28.15926 -81.81189 1192 ft 110 kts 195°
2026-04-21 23:46 28.15250 -81.81505 1189 ft 100 kts 195°
2026-04-21 23:46 28.14615 -81.81801 1196 ft 102 kts 194°
2026-04-21 23:46 28.13911 -81.82122 1201 ft 114 kts 193°
2026-04-21 23:46 28.13177 -81.82469 1207 ft 118 kts 193°
2026-04-21 23:47 28.12436 -81.82823 1217 ft 112 kts 196°
2026-04-21 23:47 28.11817 -81.83374 1212 ft 120 kts 232°
2026-04-21 23:47 28.11471 -81.84249 1221 ft 124 kts 243°
2026-04-21 23:47 28.11115 -81.85140 1215 ft 122 kts 240°
2026-04-21 23:48 28.10768 -81.86013 1213 ft 120 kts 240°
2026-04-21 23:48 28.10433 -81.86859 1222 ft 118 kts 241°
2026-04-21 23:48 28.10151 -81.87743 1185 ft 118 kts 258°
2026-04-21 23:48 28.10070 -81.88638 1214 ft 111 kts 266°
2026-04-21 23:49 28.10059 -81.89492 1293 ft 110 kts 270°
2026-04-21 23:49 28.10072 -81.90380 1241 ft 115 kts 269°
2026-04-21 23:49 28.10066 -81.91267 1283 ft 110 kts 266°
2026-04-21 23:49 28.10048 -81.92138 1240 ft 113 kts 265°
2026-04-21 23:50 28.10000 -81.93037 1261 ft 114 kts 266°
2026-04-21 23:50 28.09942 -81.93927 1352 ft 115 kts 263°
2026-04-21 23:50 28.09797 -81.94856 1348 ft 124 kts 250°
2026-04-21 23:50 28.09446 -81.95722 1380 ft 117 kts 233°
2026-04-21 23:51 28.08999 -81.96467 1384 ft 115 kts 228°
2026-04-21 23:51 28.08476 -81.97174 1387 ft 118 kts 223°
2026-04-21 23:51 28.07946 -81.97865 1481 ft 114 kts 222°
2026-04-21 23:51 28.07417 -81.98590 1471 ft 122 kts 224°
2026-04-21 23:52 28.06874 -81.99326 1398 ft 116 kts 224°
2026-04-21 23:52 28.06370 -81.99997 1236 ft 108 kts 225°
2026-04-21 23:52 28.05920 -82.00668 1242 ft 109 kts 227°
2026-04-21 23:52 28.05426 -82.01394 1255 ft 123 kts 224°
2026-04-21 23:53 28.04870 -82.02189 1263 ft 130 kts 229°
2026-04-21 23:53 28.04732 -82.03173 1340 ft 131 kts 291°
2026-04-21 23:53 28.05360 -82.03736 1247 ft 110 kts
2026-04-21 23:53 28.06082 -82.03725 1290 ft 100 kts 13°
2026-04-21 23:54 28.06718 -82.03598 1338 ft 86 kts 39°
2026-04-21 23:54 28.07202 -82.03093 1380 ft 103 kts 55°
2026-04-21 23:54 28.07685 -82.02466 1562 ft 108 kts 54°
2026-04-21 23:54 28.08177 -82.01807 1690 ft 114 kts 53°
2026-04-21 23:55 28.08760 -82.01190 1896 ft 116 kts 39°
2026-04-21 23:55 28.09510 -82.00858 2137 ft 116 kts 28°
2026-04-21 23:55 28.10308 -82.00581 2148 ft 127 kts 26°
2026-04-21 23:55 28.11183 -82.00282 2126 ft 133 kts 25°
2026-04-21 23:56 28.12019 -81.99896 2156 ft 128 kts 43°
2026-04-21 23:56 28.12762 -81.99288 2062 ft 138 kts 37°
2026-04-21 23:56 28.13640 -81.98785 1909 ft 144 kts 31°
2026-04-21 23:56 28.14557 -81.98302 1771 ft 147 kts 32°
2026-04-21 23:57 28.15491 -81.97823 1625 ft 147 kts 30°
2026-04-21 23:57 28.16413 -81.97355 1489 ft 146 kts 31°
2026-04-21 23:57 28.17343 -81.96881 1335 ft 148 kts 31°
2026-04-21 23:57 28.18278 -81.96406 1217 ft 145 kts 30°
2026-04-21 23:58 28.19175 -81.95954 1210 ft 139 kts 29°
2026-04-21 23:58 28.20046 -81.95511 1210 ft 137 kts 31°
2026-04-21 23:58 28.20902 -81.95073 1208 ft 134 kts 31°
2026-04-21 23:58 28.21753 -81.94638 1202 ft 135 kts 29°
2026-04-21 23:59 28.22605 -81.94204 1203 ft 133 kts 29°
2026-04-21 23:59 28.23443 -81.93778 1212 ft 131 kts 30°
2026-04-21 23:59 28.24290 -81.93347 1200 ft 134 kts 31°
2026-04-21 23:59 28.25114 -81.92885 1198 ft 128 kts 42°
2026-04-22 00:00 28.25636 -81.92123 1204 ft 121 kts 68°
2026-04-22 00:00 28.25748 -81.91186 1207 ft 124 kts 92°
2026-04-22 00:00 28.25415 -81.90283 1204 ft 131 kts 120°
2026-04-22 00:00 28.24753 -81.89549 1207 ft 133 kts 129°
2026-04-22 00:01 28.24098 -81.88847 1214 ft 126 kts 127°
2026-04-22 00:01 28.23465 -81.88163 1218 ft 125 kts 127°
2026-04-22 00:01 28.22833 -81.87480 1215 ft 126 kts 127°
2026-04-22 00:01 28.22214 -81.86815 1202 ft 117 kts 128°
2026-04-22 00:02 28.21650 -81.86207 1203 ft 106 kts 127°
2026-04-22 00:02 28.21120 -81.85637 1206 ft 105 kts 128°
2026-04-22 00:02 28.20770 -81.85258 1202 ft 105 kts 129°
2026-04-22 00:02 28.20239 -81.84686 1211 ft 105 kts 129°
2026-04-22 00:03 28.19710 -81.84116 1210 ft 105 kts 130°
2026-04-22 00:03 28.19184 -81.83548 1209 ft 103 kts 130°
2026-04-22 00:03 28.18655 -81.82976 1216 ft 107 kts 130°
2026-04-22 00:03 28.18122 -81.82398 1217 ft 104 kts 130°
2026-04-22 00:04 28.17611 -81.81849 1202 ft 92 kts 131°
2026-04-22 00:04 28.17183 -81.81397 1195 ft 75 kts 128°
2026-04-22 00:04 28.16777 -81.80998 1201 ft 91 kts 142°
2026-04-22 00:04 28.16046 -81.81082 1205 ft 123 kts 196°
2026-04-22 00:05 28.15242 -81.81490 1214 ft 128 kts 198°
2026-04-22 00:05 28.14445 -81.81875 1222 ft 121 kts 197°
2026-04-22 00:05 28.13661 -81.82245 1213 ft 122 kts 194°
2026-04-22 00:05 28.12901 -81.82604 1209 ft 123 kts 194°
2026-04-22 00:06 28.12140 -81.83006 1232 ft 121 kts 207°
2026-04-22 00:06 28.11649 -81.83780 1221 ft 120 kts 243°
2026-04-22 00:06 28.11337 -81.84590 1214 ft 110 kts 242°
2026-04-22 00:06 28.11039 -81.85345 1214 ft 98 kts 240°
2026-04-22 00:07 28.10772 -81.86006 1219 ft 90 kts 237°
2026-04-22 00:07 28.10497 -81.86691 1237 ft 102 kts 239°
2026-04-22 00:07 28.10186 -81.87473 1248 ft 118 kts 241°
2026-04-22 00:07 28.09824 -81.88385 1244 ft 133 kts 242°
2026-04-22 00:08 28.09441 -81.89345 1238 ft 133 kts 241°
2026-04-22 00:08 28.09091 -81.90251 1240 ft 117 kts 241°
2026-04-22 00:08 28.08770 -81.91056 1198 ft 106 kts 240°
2026-04-22 00:08 28.08469 -81.91807 1212 ft 110 kts 242°
2026-04-22 00:09 28.08146 -81.92539 1193 ft 97 kts 224°
2026-04-22 00:09 28.07808 -81.93214 1275 ft 107 kts 240°
2026-04-22 00:09 28.07741 -81.94126 1326 ft 123 kts 271°
2026-04-22 00:09 28.07739 -81.95098 1385 ft 118 kts 270°
2026-04-22 00:10 28.07719 -81.96006 1374 ft 110 kts 268°
2026-04-22 00:10 28.07676 -81.96894 1280 ft 119 kts 266°
2026-04-22 00:10 28.07587 -81.97821 1260 ft 119 kts 253°
2026-04-22 00:10 28.07277 -81.98665 1263 ft 116 kts 232°
2026-04-22 00:11 28.06861 -81.99433 1337 ft 112 kts 229°
2026-04-22 00:11 28.06370 -82.00135 1295 ft 116 kts 224°
2026-04-22 00:11 28.05838 -82.00767 1342 ft 104 kts 209°
2026-04-22 00:11 28.05212 -82.01193 1368 ft 105 kts 192°
2026-04-22 00:12 28.04536 -82.01484 1443 ft 104 kts 189°
2026-04-22 00:12 28.03841 -82.01781 1430 ft 109 kts 187°
2026-04-22 00:12 28.03115 -82.01955 1419 ft 105 kts 175°
2026-04-22 00:12 28.02396 -82.02033 1404 ft 102 kts 173°
2026-04-22 00:13 28.01696 -82.02082 1314 ft 99 kts 172°
2026-04-22 00:13 28.01025 -82.02130 1312 ft 96 kts 171°
2026-04-22 00:13 28.00332 -82.02183 1298 ft 103 kts 171°
2026-04-22 00:13 27.99639 -82.02407 1271 ft 121 kts 224°
2026-04-22 00:14 27.99558 -82.03332 1186 ft 112 kts 273°
2026-04-22 00:14 27.99569 -82.04173 1066 ft 106 kts 272°
2026-04-22 00:14 27.99573 -82.04973 998 ft 95 kts 268°
2026-04-22 00:14 27.99159 -82.05325 919 ft 71 kts 180°
2026-04-22 00:15 27.98956 -82.05053 816 ft 61 kts 80°
2026-04-22 00:15 27.99025 -82.04556 663 ft 64 kts 92°
2026-04-22 00:15 27.99034 -82.04062 570 ft 65 kts 89°
2026-04-22 00:15 27.99030 -82.03550 456 ft 61 kts 90°
2026-04-22 00:16 27.99032 -82.03107 344 ft 54 kts 91°
2026-04-22 00:16 27.99035 -82.02696 244 ft 50 kts 92°
2026-04-22 00:16 27.99036 -82.02336 164 ft 43 kts 93°
2026-04-22 00:16 27.99037 -82.02040 147 ft 31 kts 91°
2026-04-22 00:17 27.99036 -82.01809 143 ft 28 kts 89°
2026-04-22 00:17 27.99035 -82.01589 142 ft 28 kts 90°
2026-04-22 00:17 27.99038 -82.01343 140 ft 37 kts 90°
2026-04-22 00:17 27.99038 -82.01042 142 ft 33 kts 89°
2026-04-22 00:18 27.99039 -82.00826 145 ft 21 kts 88°
2026-04-22 00:18 27.99064 -82.00763 145 ft 7 kts 187°
2026-04-22 00:18 27.98927 -82.00763 143 ft 28 kts 173°
2026-04-22 00:18 27.98740 -82.00753 140 ft 23 kts 175°
2026-04-22 00:19 27.98722 -82.00768 139 ft 12 kts 318°
2026-04-22 00:19 27.98731 -82.00903 139 ft 26 kts 274°
2026-04-22 00:19 27.98732 -82.01129 141 ft 27 kts 276°
2026-04-22 00:19 27.98709 -82.01268 140 ft 15 kts 132°
2026-04-22 00:20 27.98623 -82.01165 140 ft 17 kts 139°
2026-04-22 00:20 27.98568 -82.01144 140 ft 7 kts 244°
2026-04-22 00:20 27.98550 -82.01199 141 ft 11 kts 243°
2026-04-22 00:20 27.98517 -82.01277 142 ft 13 kts 222°
2026-04-22 00:21 27.98524 -82.01321 143 ft 3 kts 268°
2026-04-22 00:21 27.98522 -82.01326 143 ft 0 kts 213°